Location: Newark
(34.4697°S, 57.8467°W)
Time: 07:53:52
(UTC+00:00)

N. Korean satellite - Pass Details

Date: 26 July 2019
Orbit: 457 x 507 km, 97.2° (Epoch: 21 August)

Event Time Altitude Azimuth Distance (km) Brightness Sun altitude
Rises 21:39:12 0° 166° (SSE) 2,518 9.9 -7.1°
Reaches altitude 10° 21:41:17 10° 163° (SSE) 1,631 8.9 -7.5°
Maximum altitude 21:44:46 66° 80° (E) 511 6.4 -8.2°
Drops below altitude 10° 21:48:11 10° 356° (N) 1,605 9.5 -8.9°
Sets 21:50:13 0° 353° (N) 2,473 10.5 -9.3°
